| time (UTC) | temp F | wind direction | speed MPH | gust MPH | rain 1hr in | rain 24hr in | rain mn in | humidity % | barometer mb |
| 20260504174114 | 73 | 206 | 9.0 | 15.0 | 0.00 | 0.00 | 0.00 | 52 | 1004.7 |
| 20260504173611 | 71 | 156 | 10.0 | 25.0 | 0.00 | 0.00 | 0.00 | 51 | 1004.7 |
| 20260504173109 | 72 | 193 | 7.0 | 16.0 | 0.00 | 0.00 | 0.00 | 53 | 1004.9 |
| 20260504172605 | 71 | 186 | 10.0 | 19.0 | 0.00 | 0.00 | 0.00 | 51 | 1004.7 |
| 20260504172102 | 71 | 217 | 13.0 | 20.0 | 0.00 | 0.00 | 0.00 | 51 | 1005.0 |
| 20260504171558 | 71 | 180 | 11.0 | 23.0 | 0.00 | 0.00 | 0.00 | 52 | 1005.1 |
| 20260504171055 | 70 | 214 | 9.0 | 14.0 | 0.00 | 0.00 | 0.00 | 51 | 1005.3 |
| 20260504170551 | 71 | 204 | 12.0 | 19.0 | 0.00 | 0.00 | 0.00 | 50 | 1005.4 |
| 20260504150935 | 66 | 212 | 9.0 | 12.0 | 0.00 | 0.00 | 0.00 | 54 | 1006.6 |
| 20260504150432 | 66 | 221 | 10.0 | 14.0 | 0.00 | 0.00 | 0.00 | 53 | 1006.5 |
| 20260504140858 | 62 | 217 | 9.0 | 13.0 | 0.00 | 0.00 | 0.00 | 60 | 1006.9 |
| 20260504140354 | 61 | 222 | 11.0 | 12.0 | 0.00 | 0.00 | 0.00 | 60 | 1007.0 |
| 20260504130319 | 57 | 191 | 7.0 | 12.0 | 0.00 | 0.00 | 0.00 | 66 | 1007.4 |
| 20260504120243 | 54 | 189 | 7.0 | 10.0 | 0.00 | 0.00 | 0.00 | 69 | 1007.6 |
| 20260504110710 | 50 | 182 | 6.0 | 9.0 | 0.00 | 0.00 | 0.00 | 75 | 1007.3 |
| 20260504110206 | 50 | 179 | 4.0 | 9.0 | 0.00 | 0.00 | 0.00 | 75 | 1007.7 |
| 20260504100130 | 50 | 181 | 4.0 | 7.0 | 0.00 | 0.00 | 0.00 | 74 | 1007.2 |
| 20260504081523 | 49 | 178 | 5.0 | 9.0 | 0.00 | 0.00 | 0.00 | 77 | 1007.8 |
| 20260504081019 | 48 | 174 | 4.0 | 8.0 | 0.00 | 0.00 | 0.00 | 77 | 1008.0 |
| 20260504080516 | 48 | 170 | 4.0 | 8.0 | 0.00 | 0.00 | 0.00 | 77 | 1007.9 |
| 20260504050334 | 49 | 168 | 4.0 | 8.0 | 0.00 | 0.00 | 0.00 | 75 | 1009.7 |
| 20260504045832 | 49 | 150 | 4.0 | 7.0 | 0.00 | 0.00 | 0.00 | 75 | 1009.9 |
| 20260504045332 | 49 | 162 | 5.0 | 9.0 | 0.00 | 0.00 | 0.00 | 75 | 1010.2 |
| 20260504044829 | 49 | 158 | 6.0 | 9.0 | 0.00 | 0.00 | 0.00 | 75 | 1009.7 |
| 20260504044326 | 49 | 149 | 6.0 | 11.0 | 0.00 | 0.00 | 0.00 | 75 | 1009.9 |
| 20260504043824 | 49 | 144 | 6.0 | 12.0 | 0.00 | 0.00 | 0.00 | 75 | 1010.1 |
| 20260504043320 | 49 | 161 | 3.0 | 9.0 | 0.00 | 0.00 | 0.00 | 75 | 1009.9 |
| 20260504042818 | 49 | 162 | 5.0 | 10.0 | 0.00 | 0.00 | 0.00 | 75 | 1010.0 |
| 20260504042314 | 49 | 155 | 5.0 | 6.0 | 0.00 | 0.00 | 0.00 | 75 | 1010.1 |
| 20260504041810 | 49 | 158 | 5.0 | 8.0 | 0.00 | 0.00 | 0.00 | 75 | 1010.3 |
| 20260504041306 | 49 | 148 | 5.0 | 6.0 | 0.00 | 0.00 | 0.00 | 75 | 1010.1 |
| 20260504040803 | 49 | 153 | 4.0 | 6.0 | 0.00 | 0.00 | 0.00 | 75 | 1010.2 |
| 20260504040300 | 49 | 167 | 6.0 | 8.0 | 0.00 | 0.00 | 0.00 | 76 | 1010.3 |
| 20260504035756 | 49 | 175 | 4.0 | 7.0 | 0.00 | 0.00 | 0.00 | 76 | 1010.2 |
| 20260504035254 | 49 | 156 | 5.0 | 7.0 | 0.00 | 0.00 | 0.00 | 76 | 1010.3 |
| 20260504034751 | 48 | 171 | 9.0 | 10.0 | 0.00 | 0.00 | 0.00 | 77 | 1010.3 |
| 20260504034248 | 48 | 178 | 4.0 | 6.0 | 0.00 | 0.00 | 0.00 | 77 | 1010.5 |
| 20260504033745 | 48 | 147 | 4.0 | 7.0 | 0.00 | 0.00 | 0.00 | 77 | 1010.5 |
| 20260504033243 | 48 | 147 | 6.0 | 9.0 | 0.00 | 0.00 | 0.00 | 78 | 1010.6 |
| 20260504032740 | 48 | 151 | 3.0 | 5.0 | 0.00 | 0.00 | 0.00 | 78 | 1010.8 |
| 20260504032237 | 48 | 139 | 4.0 | 7.0 | 0.00 | 0.00 | 0.00 | 78 | 1010.7 |
| 20260504031733 | 48 | 158 | 5.0 | 6.0 | 0.00 | 0.00 | 0.00 | 78 | 1010.6 |
| 20260504031231 | 48 | 167 | 4.0 | 7.0 | 0.00 | 0.00 | 0.00 | 79 | 1010.7 |
| 20260504030726 | 48 | 139 | 6.0 | 7.0 | 0.00 | 0.00 | 0.00 | 79 | 1010.6 |
| 20260504030224 | 48 | 146 | 4.0 | 8.0 | 0.00 | 0.00 | 0.00 | 79 | 1010.7 |
| 20260504025720 | 48 | 127 | 7.0 | 7.0 | 0.00 | 0.00 | 0.00 | 79 | 1010.8 |
| 20260504025217 | 48 | 153 | 6.0 | 9.0 | 0.00 | 0.00 | 0.00 | 79 | 1010.7 |
| 20260504024714 | 48 | 142 | 6.0 | 9.0 | 0.00 | 0.00 | 0.00 | 79 | 1011.0 |
| 20260504024211 | 48 | 147 | 6.0 | 11.0 | 0.00 | 0.00 | 0.00 | 78 | 1011.0 |
| 20260504023708 | 48 | 140 | 7.0 | 13.0 | 0.00 | 0.00 | 0.00 | 78 | 1011.0 |
| 20260504023203 | 48 | 137 | 7.0 | 11.0 | 0.00 | 0.00 | 0.00 | 78 | 1011.1 |
| 20260504022700 | 48 | 154 | 3.0 | 8.0 | 0.00 | 0.00 | 0.00 | 78 | 1011.0 |
| 20260504022156 | 48 | 148 | 7.0 | 11.0 | 0.00 | 0.00 | 0.00 | 78 | 1011.0 |
| 20260504021654 | 49 | 152 | 8.0 | 9.0 | 0.00 | 0.00 | 0.00 | 78 | 1011.2 |
| 20260504021150 | 49 | 172 | 6.0 | 12.0 | 0.00 | 0.00 | 0.00 | 77 | 1011.2 |
| 20260504020647 | 49 | 141 | 7.0 | 10.0 | 0.00 | 0.00 | 0.00 | 77 | 1011.0 |
| 20260504020143 | 49 | 156 | 9.0 | 9.0 | 0.00 | 0.00 | 0.00 | 77 | 1011.1 |
| 20260504015640 | 49 | 164 | 11.0 | 13.0 | 0.00 | 0.00 | 0.00 | 77 | 1011.1 |
| 20260504015137 | 49 | 163 | 4.0 | 11.0 | 0.00 | 0.00 | 0.00 | 76 | 1011.0 |
| 20260504014632 | 49 | 169 | 5.0 | 10.0 | 0.00 | 0.00 | 0.00 | 76 | 1011.0 |
| 20260504014130 | 49 | 164 | 7.0 | 11.0 | 0.00 | 0.00 | 0.00 | 75 | 1011.1 |
| 20260504013627 | 49 | 156 | 5.0 | 9.0 | 0.00 | 0.00 | 0.00 | 75 | 1010.9 |
| 20260504013124 | 50 | 142 | 6.0 | 11.0 | 0.00 | 0.00 | 0.00 | 74 | 1011.0 |
| 20260504012621 | 50 | 135 | 9.0 | 11.0 | 0.00 | 0.00 | 0.00 | 74 | 1011.3 |
| 20260504012120 | 50 | 107 | 4.0 | 15.0 | 0.00 | 0.00 | 0.00 | 73 | 1011.0 |
| 20260504011616 | 50 | 155 | 13.0 | 17.0 | 0.00 | 0.00 | 0.00 | 74 | 1011.2 |
| 20260504011112 | 50 | 161 | 7.0 | 13.0 | 0.00 | 0.00 | 0.00 | 73 | 1011.2 |
| 20260504010608 | 50 | 149 | 7.0 | 8.0 | 0.00 | 0.00 | 0.00 | 73 | 1011.1 |
| 20260504010104 | 50 | 139 | 6.0 | 12.0 | 0.00 | 0.00 | 0.00 | 73 | 1011.2 |
| 20260504005601 | 50 | 179 | 6.0 | 13.0 | 0.00 | 0.00 | 0.00 | 73 | 1011.2 |
| 20260504005058 | 50 | 155 | 6.0 | 13.0 | 0.00 | 0.00 | 0.00 | 73 | 1011.2 |
| 20260504004556 | 50 | 153 | 5.0 | 12.0 | 0.00 | 0.00 | 0.00 | 74 | 1011.1 |
| 20260504004053 | 50 | 156 | 6.0 | 13.0 | 0.00 | 0.00 | 0.00 | 74 | 1011.1 |
| 20260504003549 | 50 | 137 | 10.0 | 15.0 | 0.00 | 0.00 | 0.00 | 74 | 1011.4 |
| 20260504003046 | 50 | 156 | 9.0 | 16.0 | 0.00 | 0.00 | 0.00 | 74 | 1011.2 |
| 20260504002542 | 50 | 180 | 6.0 | 10.0 | 0.00 | 0.00 | 0.00 | 74 | 1011.4 |
| 20260504002040 | 50 | 145 | 7.0 | 10.0 | 0.00 | 0.00 | 0.00 | 74 | 1011.4 |
| 20260504001538 | 50 | 164 | 6.0 | 12.0 | 0.00 | 0.00 | 0.00 | 74 | 1011.3 |
| 20260504001034 | 50 | 157 | 8.0 | 10.0 | 0.00 | 0.00 | 0.00 | 75 | 1011.5 |
| 20260504000531 | 50 | 149 | 6.0 | 13.0 | 0.00 | 0.00 | 0.00 | 74 | 1011.4 |
| 20260504000029 | 50 | 154 | 9.0 | 15.0 | 0.00 | 0.00 | 0.00 | 74 | 1011.7 |
| 20260503235527 | 50 | 128 | 7.0 | 10.0 | 0.00 | 0.00 | 0.00 | 74 | 1011.7 |
| 20260503235023 | 50 | 143 | 5.0 | 17.0 | 0.00 | 0.00 | 0.00 | 73 | 1011.8 |
| 20260503234521 | 50 | 151 | 9.0 | 14.0 | 0.00 | 0.00 | 0.00 | 73 | 1011.9 |
| 20260503234019 | 50 | 172 | 7.0 | 14.0 | 0.00 | 0.00 | 0.00 | 72 | 1011.8 |
| 20260503233515 | 50 | 148 | 5.0 | 16.0 | 0.00 | 0.00 | 0.00 | 72 | 1011.9 |
| 20260503233011 | 50 | 176 | 9.0 | 14.0 | 0.00 | 0.00 | 0.00 | 72 | 1011.9 |
| 20260503232508 | 50 | 170 | 5.0 | 12.0 | 0.00 | 0.00 | 0.00 | 72 | 1011.8 |
| 20260503232006 | 50 | 140 | 15.0 | 18.0 | 0.00 | 0.00 | 0.00 | 72 | 1011.9 |
| 20260503231504 | 51 | 137 | 10.0 | 16.0 | 0.00 | 0.00 | 0.00 | 72 | 1012.2 |
| 20260503231000 | 51 | 185 | 10.0 | 12.0 | 0.00 | 0.00 | 0.00 | 71 | 1012.0 |
| 20260503230456 | 51 | 128 | 10.0 | 17.0 | 0.00 | 0.00 | 0.00 | 72 | 1012.1 |
| 20260503225954 | 50 | 151 | 15.0 | 17.0 | 0.00 | 0.00 | 0.00 | 73 | 1012.2 |
| 20260503225450 | 50 | 142 | 11.0 | 14.0 | 0.00 | 0.00 | 0.00 | 74 | 1012.4 |
| 20260503224946 | 50 | 175 | 6.0 | 14.0 | 0.00 | 0.00 | 0.00 | 74 | 1012.1 |
| 20260503224443 | 50 | 162 | 10.0 | 12.0 | 0.00 | 0.00 | 0.00 | 75 | 1012.4 |
| 20260503223941 | 50 | 145 | 10.0 | 11.0 | 0.00 | 0.00 | 0.00 | 75 | 1012.4 |
| 20260503223439 | 50 | 147 | 14.0 | 15.0 | 0.00 | 0.00 | 0.00 | 75 | 1012.3 |
| 20260503222934 | 50 | 143 | 9.0 | 16.0 | 0.00 | 0.00 | 0.00 | 75 | 1012.6 |
| 20260503222433 | 50 | 175 | 9.0 | 9.0 | 0.00 | 0.00 | 0.00 | 75 | 1012.6 |
| 20260503221931 | 50 | 147 | 7.0 | 14.0 | 0.00 | 0.00 | 0.00 | 75 | 1012.7 |
| 20260503221429 | 50 | 205 | 7.0 | 13.0 | 0.00 | 0.00 | 0.00 | 76 | 1012.6 |
| 20260503220925 | 50 | 164 | 6.0 | 14.0 | 0.00 | 0.00 | 0.00 | 76 | 1012.8 |
| 20260503220421 | 50 | 199 | 6.0 | 11.0 | 0.00 | 0.00 | 0.00 | 75 | 1012.8 |
| 20260503215919 | 50 | 173 | 10.0 | 15.0 | 0.00 | 0.00 | 0.00 | 75 | 1012.5 |
| 20260503215416 | 50 | 138 | 8.0 | 11.0 | 0.00 | 0.00 | 0.00 | 75 | 1012.5 |
| 20260503214913 | 50 | 190 | 4.0 | 12.0 | 0.00 | 0.00 | 0.00 | 74 | 1012.9 |
| 20260503214410 | 50 | 130 | 8.0 | 11.0 | 0.00 | 0.00 | 0.00 | 74 | 1012.9 |
| 20260503213908 | 50 | 172 | 11.0 | 14.0 | 0.00 | 0.00 | 0.00 | 73 | 1012.9 |
| 20260503213406 | 50 | 180 | 12.0 | 16.0 | 0.00 | 0.00 | 0.00 | 73 | 1012.8 |
| 20260503212902 | 50 | 180 | 6.0 | 20.0 | 0.00 | 0.00 | 0.00 | 72 | 1012.9 |
| 20260503212400 | 50 | 185 | 9.0 | 18.0 | 0.00 | 0.00 | 0.00 | 72 | 1013.1 |
| 20260503211857 | 50 | 176 | 7.0 | 16.0 | 0.00 | 0.00 | 0.00 | 72 | 1013.5 |
| 20260503211353 | 50 | 196 | 10.0 | 17.0 | 0.00 | 0.00 | 0.00 | 71 | 1013.5 |
| 20260503210848 | 50 | 212 | 8.0 | 17.0 | 0.00 | 0.00 | 0.00 | 72 | 1013.8 |
| 20260503210346 | 51 | 186 | 9.0 | 11.0 | 0.00 | 0.00 | 0.00 | 70 | 1013.9 |
| 20260503205841 | 51 | 222 | 11.0 | 19.0 | 0.00 | 0.00 | 0.00 | 69 | 1013.8 |
| 20260503205338 | 51 | 212 | 12.0 | 23.0 | 0.00 | 0.00 | 0.00 | 67 | 1014.1 |
| 20260503204834 | 52 | 214 | 18.0 | 28.0 | 0.00 | 0.00 | 0.00 | 66 | 1014.3 |
| 20260503204332 | 52 | 215 | 12.0 | 27.0 | 0.00 | 0.00 | 0.00 | 66 | 1014.2 |
| 20260503203829 | 52 | 235 | 14.0 | 24.0 | 0.00 | 0.00 | 0.00 | 66 | 1014.4 |
| 20260503203326 | 52 | 235 | 11.0 | 20.0 | 0.00 | 0.00 | 0.00 | 66 | 1014.4 |
| 20260503202823 | 52 | 216 | 18.0 | 29.0 | 0.00 | 0.00 | 0.00 | 64 | 1014.3 |
| 20260503202321 | 53 | 243 | 12.0 | 25.0 | 0.00 | 0.00 | 0.00 | 65 | 1014.5 |
| 20260503201819 | 53 | 223 | 16.0 | 35.0 | 0.00 | 0.00 | 0.00 | 63 | 1014.5 |
| 20260503201316 | 53 | 240 | 16.0 | 28.0 | 0.00 | 0.00 | 0.00 | 62 | 1014.4 |
| 20260503200813 | 53 | 231 | 14.0 | 28.0 | 0.00 | 0.00 | 0.00 | 60 | 1014.6 |
| 20260503200309 | 54 | 257 | 14.0 | 28.0 | 0.00 | 0.00 | 0.00 | 58 | 1014.5 |
| 20260503195807 | 55 | 251 | 15.0 | 22.0 | 0.00 | 0.00 | 0.00 | 58 | 1014.4 |
| 20260503195304 | 55 | 218 | 20.0 | 27.0 | 0.00 | 0.00 | 0.00 | 55 | 1014.2 |
| 20260503194800 | 57 | 230 | 18.0 | 35.0 | 0.00 | 0.00 | 0.00 | 53 | 1014.1 |
| 20260503194256 | 59 | 218 | 17.0 | 22.0 | 0.00 | 0.00 | 0.00 | 47 | 1013.8 |
| 20260503193752 | 59 | 209 | 7.0 | 20.0 | 0.00 | 0.00 | 0.00 | 45 | 1013.9 |
| 20260503193248 | 59 | 209 | 5.0 | 19.0 | 0.00 | 0.00 | 0.00 | 45 | 1014.1 |
| 20260503192744 | 59 | 220 | 21.0 | 21.0 | 0.00 | 0.00 | 0.00 | 44 | 1014.0 |
| 20260503192239 | 59 | 230 | 10.0 | 23.0 | 0.00 | 0.00 | 0.00 | 45 | 1014.1 |
| 20260503191737 | 59 | 211 | 20.0 | 29.0 | 0.00 | 0.00 | 0.00 | 43 | 1014.2 |
| 20260503191234 | 59 | 216 | 18.0 | 28.0 | 0.00 | 0.00 | 0.00 | 45 | 1014.0 |
| 20260503190731 | 59 | 220 | 18.0 | 22.0 | 0.00 | 0.00 | 0.00 | 43 | 1014.1 |
| 20260503190227 | 59 | 217 | 13.0 | 26.0 | 0.00 | 0.00 | 0.00 | 44 | 1014.1 |
| 20260503185725 | 59 | 213 | 13.0 | 19.0 | 0.00 | 0.00 | 0.00 | 44 | 1014.0 |
| 20260503185220 | 59 | 221 | 15.0 | 17.0 | 0.00 | 0.00 | 0.00 | 46 | 1014.2 |
| 20260503184715 | 59 | 239 | 5.0 | 23.0 | 0.00 | 0.00 | 0.00 | 45 | 1014.3 |
| 20260503184211 | 59 | 206 | 21.0 | 25.0 | 0.00 | 0.00 | 0.00 | 43 | 1014.3 |
| 20260503183708 | 59 | 266 | 13.0 | 23.0 | 0.00 | 0.00 | 0.00 | 44 | 1014.5 |
| 20260503183205 | 60 | 211 | 19.0 | 22.0 | 0.00 | 0.00 | 0.00 | 42 | 1014.4 |
| 20260503182704 | 59 | 204 | 12.0 | 25.0 | 0.00 | 0.00 | 0.00 | 44 | 1014.5 |
| 20260503182202 | 59 | 238 | 9.0 | 30.0 | 0.00 | 0.00 | 0.00 | 44 | 1014.5 |
| 20260503181658 | 59 | 210 | 14.0 | 21.0 | 0.00 | 0.00 | 0.00 | 41 | 1014.5 |
| 20260503181155 | 60 | 239 | 10.0 | 17.0 | 0.00 | 0.00 | 0.00 | 41 | 1014.9 |
| 20260503180651 | 59 | 212 | 21.0 | 23.0 | 0.00 | 0.00 | 0.00 | 41 | 1014.8 |
| 20260503180150 | 59 | 189 | 11.0 | 25.0 | 0.00 | 0.00 | 0.00 | 43 | 1015.0 |
| 20260503175646 | 60 | 196 | 9.0 | 19.0 | 0.00 | 0.00 | 0.00 | 43 | 1015.1 |
| 20260503175143 | 60 | 239 | 11.0 | 28.0 | 0.00 | 0.00 | 0.00 | 39 | 1015.1 |
| 20260503174640 | 60 | 235 | 13.0 | 18.0 | 0.00 | 0.00 | 0.00 | 39 | 1015.0 |